TimePST,TemperatureF,Dew PointF,Humidity,Sea Level PressureIn,VisibilityMPH,Wind Direction,Wind SpeedMPH,Gust SpeedMPH,PrecipitationIn,Events,Conditions,WindDirDegrees,DateUTC
12:03 AM,48.2,46.4,93,30.43,1.8,Calm,Calm,-,N/A,,Mostly Cloudy,0,2013-03-01 08:03:00
12:12 AM,46.4,44.6,93,30.43,3.0,Calm,Calm,-,N/A,,Overcast,0,2013-03-01 08:12:00
12:45 AM,46.4,44.6,93,30.43,10.0,Calm,Calm,-,N/A,,Partly Cloudy,0,2013-03-01 08:45:00
1:01 AM,44.6,42.8,93,30.43,3.0,Calm,Calm,-,N/A,,Mostly Cloudy,0,2013-03-01 09:01:00
1:04 AM,44.6,42.8,93,30.43,1.8,ENE,3.5,-,N/A,,Mostly Cloudy,70,2013-03-01 09:04:00
1:09 AM,44.6,42.8,93,30.43,0.8,Calm,Calm,-,N/A,,Mist,0,2013-03-01 09:09:00
1:20 AM,44.6,42.8,93,30.43,0.2,Calm,Calm,-,N/A,Fog,Fog,0,2013-03-01 09:20:00
1:49 AM,44.6,44.6,100,30.43,0.8,Calm,Calm,-,N/A,,Mist,0,2013-03-01 09:49:00
1:53 AM,44.1,44.1,100,30.46,0.5,South,3.5,-,N/A,Fog,Fog,180,2013-03-01 09:53:00
2:02 AM,44.6,42.8,93,30.43,0.2,Calm,Calm,-,N/A,Fog,Fog,0,2013-03-01 10:02:00
2:53 AM,44.1,43.0,96,30.45,0.2,Calm,Calm,-,N/A,Fog,Fog,0,2013-03-01 10:53:00
3:12 AM,44.6,42.8,93,30.42,1.0,Calm,Calm,-,N/A,,Mist,0,2013-03-01 11:12:00
3:17 AM,44.6,42.8,93,30.42,3.0,Calm,Calm,-,N/A,,Mostly Cloudy,0,2013-03-01 11:17:00
3:45 AM,44.6,42.8,93,30.41,1.5,Calm,Calm,-,N/A,,Overcast,0,2013-03-01 11:45:00
4:00 AM,44.6,42.8,93,30.42,0.2,Calm,Calm,-,N/A,Fog,Fog,0,2013-03-01 12:00:00
4:53 AM,43.0,43.0,100,30.44,0.2,Calm,Calm,-,N/A,Fog,Fog,0,2013-03-01 12:53:00
5:28 AM,42.8,41.0,93,30.39,0.5,Calm,Calm,-,N/A,Fog,Fog,0,2013-03-01 13:28:00
5:37 AM,42.8,42.8,100,30.39,0.2,Calm,Calm,-,N/A,Fog,Fog,0,2013-03-01 13:37:00
5:53 AM,42.1,42.1,100,30.42,0.2,Calm,Calm,-,N/A,Fog,Fog,0,2013-03-01 13:53:00
6:44 AM,42.8,42.8,100,30.39,1.0,Calm,Calm,-,N/A,,Mist,0,2013-03-01 14:44:00
6:51 AM,42.8,41.0,93,30.39,1.2,Calm,Calm,-,N/A,,Scattered Clouds,0,2013-03-01 14:51:00
6:53 AM,42.1,42.1,100,30.42,1.0,Calm,Calm,-,N/A,,Mist,0,2013-03-01 14:53:00
7:00 AM,42.8,41.0,93,30.39,0.8,Calm,Calm,-,N/A,,Mist,0,2013-03-01 15:00:00
7:04 AM,42.8,42.8,100,30.38,1.2,Calm,Calm,-,N/A,,Partly Cloudy,0,2013-03-01 15:04:00
7:14 AM,42.8,41.0,93,30.38,0.8,SSE,4.6,-,N/A,,Mist,160,2013-03-01 15:14:00
7:24 AM,42.8,41.0,93,30.39,2.0,SSE,4.6,-,N/A,,Partly Cloudy,160,2013-03-01 15:24:00
7:31 AM,42.8,41.0,93,30.39,9.0,Calm,Calm,-,N/A,,Partly Cloudy,0,2013-03-01 15:31:00
7:53 AM,44.1,43.0,96,30.42,10.0,ENE,4.6,-,N/A,,Clear,70,2013-03-01 15:53:00
8:53 AM,53.1,46.0,77,30.41,10.0,ESE,5.8,-,N/A,,Clear,110,2013-03-01 16:53:00
10:53 AM,66.9,50.0,54,30.37,10.0,NNE,3.5,-,N/A,,Clear,30,2013-03-01 18:53:00
11:53 AM,72.0,46.9,41,30.35,10.0,Calm,Calm,-,N/A,,Clear,0,2013-03-01 19:53:00
1:53 PM,75.9,45.0,33,30.27,10.0,West,3.5,-,N/A,,Clear,270,2013-03-01 21:53:00
2:53 PM,75.9,51.1,42,30.25,10.0,SW,11.5,-,N/A,,Clear,230,2013-03-01 22:53:00
3:53 PM,79.0,43.0,28,30.24,10.0,Variable,3.5,-,N/A,,Clear,0,2013-03-01 23:53:00
4:15 PM,71.6,48.2,43,30.21,10.0,West,12.7,-,N/A,,Clear,260,2013-03-02 00:15:00
4:53 PM,66.0,48.9,54,30.24,10.0,WSW,13.8,-,N/A,,Clear,250,2013-03-02 00:53:00
6:53 PM,59.0,48.9,69,30.27,10.0,NW,6.9,-,N/A,,Clear,320,2013-03-02 02:53:00
7:53 PM,55.9,48.9,77,30.27,10.0,North,6.9,-,N/A,,Clear,350,2013-03-02 03:53:00
8:53 PM,55.0,48.0,77,30.27,10.0,South,3.5,-,N/A,,Clear,190,2013-03-02 04:53:00
9:53 PM,55.0,48.0,77,30.28,10.0,Calm,Calm,-,N/A,,Clear,0,2013-03-02 05:53:00
10:53 PM,50.0,46.0,86,30.28,10.0,ESE,6.9,-,N/A,,Clear,110,2013-03-02 06:53:00
11:53 PM,51.1,46.0,83,30.26,10.0,East,5.8,-,N/A,,Clear,100,2013-03-02 07:53:00